This demonstration page uses our WeatherBlox Daily Observations layout. Learn more.

Left ArrowRight Arrow

39.51506, -84.39828

Hourly Observations for August 12, 2020

Temp ( °F °C ) Dew Point ( °F °C ) Humidity (%) Winds ( mph kmh ) Pressure ( in mb ) Visibility ( mi km ) Precip ( " mm )
12:15 am 00:15 Clear 70 21 N/A N/A Calm 30.02 1017 10 16.0934 0 0
12:35 am 00:35 Clear with Mist and Fog 71 21.5 70 21.2 98 98 Calm 30.02 1017 7 11.26538 0 0
12:55 am 00:55 Clear 70 21.2 70 20.9 98 98 NNE 5 7 30.02 1017 10 16.0934 0 0
1:15 am 01:15 Clear 70 21.3 69 20.8 97 97 Calm 30.02 1017 10 16.0934 0 0
1:35 am 01:35 Clear 70 20.9 69 20.7 99 99 Calm 30.02 1017 10 16.0934 0 0
1:55 am 01:55 Clear 68 20 68 20 100 100 Calm 30.02 1017 10 16.0934 0 0
2:15 am 02:15 Clear 68 20 N/A N/A Calm 30.02 1017 10 16.0934 0 0
2:35 am 02:35 Clear 68 20 N/A N/A Calm 30.02 1017 10 16.0934 0 0
2:55 am 02:55 Clear 68 20 N/A N/A Calm 30.02 1017 10 16.0934 0 0
3:15 am 03:15 Clear 66 19 N/A N/A Calm 30.04 1017 10 16.0934 0 0
3:35 am 03:35 Clear 66 19 N/A N/A N 3 6 30.03 1017 10 16.0934 0 0
3:55 am 03:55 Clear 68 20 N/A N/A Calm 30.03 1017 10 16.0934 0 0
4:15 am 04:15 Clear 68 20 68 20 100 100 NNE 3 6 30.03 1017 10 16.0934 0 0
4:35 am 04:35 Clear 67 19.6 67 19.6 100 100 N 3 6 30.04 1017 10 16.0934 0 0
4:55 am 04:55 Clear 68 20 N/A N/A Calm 30.02 1017 7 11.26538 0 0
5:15 am 05:15 Clear 68 20 N/A N/A NNE 5 7 30.03 1017 10 16.0934 0 0
5:35 am 05:35 Mostly Cloudy 66 19 66 19 100 100 Calm 30.04 1017 7 11.26538 0 0
5:55 am 05:55 Mostly Cloudy 68 20 N/A N/A Calm 30.04 1017 7 11.26538 0 0
6:15 am 06:15 Cloudy 68 20 N/A N/A NNE 3 6 30.05 1018 7 11.26538 0 0
6:35 am 06:35 Cloudy 68 20.2 68 20.1 99 99 Calm 30.05 1018 7 11.26538 0 0
6:55 am 06:55 Mostly Cloudy with Mist and Fog 68 19.9 68 19.9 100 100 Calm 30.05 1018 5 8.0467 0 0
7:15 am 07:15 Mostly Cloudy with Mist and Fog 68 19.9 68 19.9 100 100 Calm 30.06 1018 7 11.26538 0 0
7:35 am 07:35 Mostly Cloudy with Mist and Fog 69 20.3 68 20.2 99 99 Calm 30.07 1018 7 11.26538 0 0
7:55 am 07:55 Cloudy 69 20.7 69 20.5 99 99 Calm 30.07 1018 7 11.26538 0 0
8:15 am 08:15 Partly Cloudy 70 21 70 21 100 100 Calm 30.07 1018 10 16.0934 0 0
8:35 am 08:35 Sunny 72 22 70 21 94 94 NNE 3 6 30.08 1019 10 16.0934 0 0
8:55 am 08:55 Sunny 72 22.1 71 21.4 96 96 Calm 30.08 1019 10 16.0934 0 0
9:15 am 09:15 Sunny 73 22.9 71 21.9 94 94 Calm 30.08 1019 10 16.0934 0 0
9:35 am 09:35 Mostly Cloudy 74 23.5 71 21.9 91 91 Calm 30.08 1019 10 16.0934 0 0
9:55 am 09:55 Mostly Cloudy 75 24.1 71 21.9 88 88 Calm 30.08 1018 10 16.0934 0 0
10:15 am 10:15 Partly Cloudy 77 25.2 73 22.5 85 85 NE 3 6 30.06 1018 10 16.0934 0 0
10:35 am 10:35 Sunny 79 25.9 72 22 79 79 NE 6 9 30.06 1018 10 16.0934 0 0
10:55 am 10:55 Sunny 80 26.4 71 21.5 75 75 NE 6 9 30.06 1018 10 16.0934 0 0
11:15 am 11:15 Partly Cloudy 80 26.6 71 21.5 74 74 NE 5 7 30.07 1018 10 16.0934 0 0
11:35 am 11:35 Sunny 80 26.8 70 21.2 71 71 Calm 30.06 1018 10 16.0934 0 0
11:55 am 11:55 Partly Cloudy 81 27.2 70 21.3 70 70 NE 5 7 30.06 1018 10 16.0934 0 0
12:15 pm 12:15 Partly Cloudy 81 27.4 71 21.4 70 70 NE 3 6 30.07 1018 10 16.0934 0 0
12:35 pm 12:35 Sunny 81 27.1 69 20.8 69 69 Calm 30.06 1018 10 16.0934 0 0
12:55 pm 12:55 Sunny 81 27.4 70 21.1 69 69 N 3 6 30.05 1018 10 16.0934 0 0
1:15 pm 13:15 Mostly Cloudy 82 27.5 71 21.5 70 70 NE 5 7 30.05 1018 10 16.0934 0 0
1:35 pm 13:35 Partly Cloudy 83 28.2 70 21 65 65 NE 7 11 30.05 1017 10 16.0934 0 0
1:55 pm 13:55 Partly Cloudy 84 29 71 21.4 64 64 Calm 30.04 1017 10 16.0934 0 0
2:15 pm 14:15 Partly Cloudy 84 28.7 70 21.2 64 64 Calm 30.04 1017 10 16.0934 0 0
2:35 pm 14:35 Partly Cloudy 83 28.4 69 20.6 63 63 NE 6 9 30.04 1017 10 16.0934 0 0
2:55 pm 14:55 Partly Cloudy 84 28.8 70 21.2 64 64 NNW 5 7 30.03 1017 10 16.0934 0 0
3:15 pm 15:15 Partly Cloudy 84 29.1 71 21.5 64 64 NNE 5 7 30.02 1017 10 16.0934 0 0
3:35 pm 15:35 Sunny 84 28.8 71 21.5 65 65 NE 7 11 30.02 1017 10 16.0934 0 0
3:55 pm 15:55 Mostly Cloudy 84 28.8 70 21.1 63 63 N 3 6 30.01 1016 10 16.0934 0 0
4:15 pm 16:15 Mostly Cloudy 84 28.8 70 21.3 64 64 NNE 5 7 30.01 1016 10 16.0934 0 0
4:35 pm 16:35 Sunny 85 29.3 70 21.3 62 62 NE 5 7 30.01 1016 10 16.0934 0 0
4:55 pm 16:55 Sunny 85 29.2 70 21.3 62 62 NW 7 11 30.01 1016 10 16.0934 0 0
5:15 pm 17:15 Sunny 85 29.5 69 20.8 60 60 NNE 6 9 30.01 1016 10 16.0934 0 0
5:35 pm 17:35 Sunny 85 29.5 71 21.4 62 62 NNW 7 11 30.01 1016 10 16.0934 0 0
5:55 pm 17:55 Sunny 84 29.1 70 21.2 62 62 N 8 13 30.01 1016 10 16.0934 0 0
6:15 pm 18:15 Sunny 84 29 69 20.5 60 60 N 3 6 30 1016 10 16.0934 0 0
6:35 pm 18:35 Sunny 84 28.7 69 20.6 62 62 N 7 11 30.01 1016 10 16.0934 0 0
6:55 pm 18:55 Sunny 83 28.1 69 20.7 64 64 N 5 7 30.01 1016 10 16.0934 0 0
7:15 pm 19:15 Sunny 82 27.8 70 21.1 67 67 NNW 7 11 30.02 1016 10 16.0934 0 0
7:35 pm 19:35 Sunny 82 27.6 69 20.5 65 65 N 5 7 30.01 1016 10 16.0934 0 0
7:55 pm 19:55 Sunny 81 27 69 20.3 67 67 N 6 9 30.01 1016 10 16.0934 0 0
8:15 pm 20:15 Sunny 79 26.2 68 20.2 70 70 NNW 3 6 30.02 1017 10 16.0934 0 0
8:35 pm 20:35 Sunny 77 25.2 69 20.3 74 74 Calm 30.02 1017 10 16.0934 0 0
8:55 pm 20:55 Clear 76 24.3 69 20.4 79 79 Calm 30.03 1017 10 16.0934 0 0
9:15 pm 21:15 Clear 75 23.8 69 20.3 81 81 Calm 30.04 1017 10 16.0934 0 0
9:35 pm 21:35 Clear 75 23.7 68 20.2 81 81 NNE 6 9 30.04 1017 10 16.0934 0 0
9:55 pm 21:55 Clear 74 23.5 68 20 81 81 Calm 30.05 1017 10 16.0934 0 0
10:15 pm 22:15 Clear 73 22.9 68 20.2 85 85 Calm 30.05 1018 10 16.0934 0 0
10:35 pm 22:35 Cloudy 74 23.1 69 20.5 85 85 NNE 3 6 30.05 1018 7 11.26538 0 0
10:55 pm 22:55 Cloudy 74 23.4 69 20.7 85 85 Calm 30.05 1017 10 16.0934 0 0
11:15 pm 23:15 Cloudy 74 23.4 69 20.4 83 83 Calm 30.06 1018 10 16.0934 0 0
11:35 pm 23:35 Mostly Cloudy 74 23.2 69 20.4 84 84 N 5 7 30.06 1018 10 16.0934 0 0
11:55 pm 23:55 Partly Cloudy 73 22.6 69 20.3 87 87 N 5 7 30.06 1018 10 16.0934 0 0

Powered by AerisWeather